Regional Weather Roundup
Issued by NWS

Home | Current Version | Previous Version | Text Only | Print | Product List | Glossary On
Versions: 1 2 3 4 5 6 7 8 9 10 11 12 13 14 15 16 17 18 19 20 21 22 23 24 25 26 27 28 29 30 31 32 33 34 35 36 37 38 39 40 41 42 43 44 45 46 47 48 49 50
179
ASUS43 KOAX 222310
RWRNE

WEATHER ROUNDUP FOR NEBRASKA
NATIONAL WEATHER SERVICE OMAHA NE
600 PM CDT WED MAR 22 2017

NOTES: SATELLITE DATA IS BEING USED TO AUGMENT CLOUD COVER ABOVE
       12000 FEET.
       "FAIR" INDICATES FEW OR NO CLOUDS BELOW 12,000 FEET WITH NO
       SIGNIFICANT WEATHER AND/OR OBSTRUCTIONS TO VISIBILITY.

  * THESE STATIONS DO NOT REPORT WEATHER SUCH AS RAIN...SNOW OR FOG.

NEZ001>004-019>022-054>056-230000-
NEBRASKA PANHANDLE

CITY           SKY/WX    TMP DP  RH WIND       PRES   REMARKS
SCOTTSBLUFF    CLOUDY    70  34  26 SE14      29.81F
ALLIANCE       CLOUDY    64  36  35 S23G30    29.85R
CHADRON        MOSUNNY   69  36  29 S17       29.78F
KIMBALL        CLOUDY    69  39  33 SE20G25   29.87F
SIDNEY         CLOUDY    64  35  34 S24G31    29.87F
$$

NEZ057>060-069>072-079>082-230000-
SOUTHWEST NEBRASKA

CITY           SKY/WX    TMP DP  RH WIND       PRES   REMARKS
NORTH PLATTE   PTSUNNY   55  31  39 SE16G26   29.99F
IMPERIAL       SUNNY     57  36  45 S20       29.94F
LEXINGTON      CLOUDY    51  28  41 SE15      30.04F
MCCOOK         CLOUDY    53  33  46 S14       30.01F
OGALLALA       SUNNY     62  35  36 S20G26    29.93F
$$

NEZ005>010-023>029-035>040-094-230000-
NORTH CENTRAL NEBRASKA

CITY           SKY/WX    TMP DP  RH WIND       PRES   REMARKS
VALENTINE      SUNNY     54  31  41 S21G33    29.92F
AINSWORTH      CLOUDY    50  31  47 S23G31    29.97F
BROKEN BOW     CLOUDY    52  27  38 S22G30    30.03F
O`NEILL        CLOUDY    51  22  32 SE26G32   30.04F
ORD            CLOUDY    54  22  28 S17G25    30.04F
THEDFORD       SUNNY     51  32  47 S22G30    29.98F
$$

NEZ041-046>049-061>064-073>077-083>087-230000-
SOUTH CENTRAL NEBRASKA

CITY           SKY/WX    TMP DP  RH WIND       PRES   REMARKS
GRAND ISLAND   CLOUDY    54  20  26 SE20G26   30.10F
AURORA         CLOUDY    55  16  22 SE17G25   30.10F
HASTINGS       CLOUDY    52  23  32 S15G23    30.11F
HEBRON         CLOUDY    55  19  23 S15G22    30.13F
HOLDREGE       CLOUDY    50  25  36 SE17G24   30.07S
KEARNEY *      CLOUDY    50  25  37 S18G25    30.09S
YORK           CLOUDY    55  16  21 SE21      30.11F
$$

NEZ011>018-030>034-042>045-230000-
NORTHEAST NEBRASKA

CITY           SKY/WX    TMP DP  RH WIND       PRES   REMARKS
NORFOLK        PTSUNNY   50  21  32 SE20G28   30.11F
ALBION         CLOUDY    54  16  22 SE14G21   30.09F
BLAIR          CLOUDY    50  24  35 SE18      30.19F
FREMONT        CLOUDY    49  22  34 SE13G21   30.19F
TEKAMAH        CLOUDY    50  23  34 SE20      30.20F
WAYNE          PTSUNNY   49  25  38 SE18      30.15F
$$

NEZ050>053-065>068-078-088>093-230000-
SOUTHEAST NEBRASKA

CITY           SKY/WX    TMP DP  RH WIND       PRES   REMARKS
LINCOLN        CLOUDY    54  21  27 SE15G25   30.17F
OMAHA EPPLEY   CLOUDY    50  23  34 SE21      30.21F
BEATRICE       CLOUDY    58  23  26 SE15G21   30.14F
FALLS CITY     MOSUNNY   54  26  34 E18       30.19F
NEBRASKA CITY  MOSUNNY   51  18  27 E14G20    30.20F
PLATTSMOUTH    CLOUDY    49  19  30 E16G23    30.20F
$$

NEZ044-045-051>053-067-230000-
OMAHA AREA

CITY           SKY/WX    TMP DP  RH WIND       PRES   REMARKS
OMAHA EPPLEY   CLOUDY    50  23  34 SE21      30.21F
BLAIR          CLOUDY    50  24  35 SE18      30.19F
FREMONT        CLOUDY    49  22  34 SE13G21   30.19F
MILLARD        CLOUDY    51  28  39 SE18      30.20F
OFFUTT AFB     CLOUDY    49  25  38 E15G24    30.21F
PLATTSMOUTH    CLOUDY    49  19  30 E16G23    30.20F
WAHOO          MOCLDY    50  19  29 SE20      30.19F
$$




USA.gov is the U.S. government's official web portal to all federal, state and local government web resources and services.